Regional Weather Roundup
Issued by NWS

Home | Current Version | Previous Version | Text Only | Print | Product List | Glossary Off
Versions: 1 2 3 4 5 6 7 8 9 10 11 12 13 14 15 16 17 18 19 20 21 22 23 24 25 26 27 28 29 30 31 32 33 34 35 36 37 38 39 40 41 42 43 44 45 46 47 48 49 50

000
ASUS44 KMEG 191900
RWRTN
TENNESSEE HOURLY STATE WEATHER ROUNDUP
NATIONAL WEATHER SERVICE MEMPHIS TN
200 PM CDT TUE AUG 19 2014

TNZ002-004-019-021-049-052-054-088>092-192000-
WEST TENNESSEE

CITY           SKY/WX    TMP DP  RH WIND       PRES   REMARKS
MEMPHIS INTL   PTSUNNY   87  71  58 S7        29.90F HX  93
NWS MEMPHIS      N/A     87 N/A N/A MISG        N/A
JACKSON        PTSUNNY   88  70  55 W10       29.89F HX  93
DYERSBURG      PTSUNNY   86  66  51 SW8       29.89S
PARIS          MOSUNNY   86  75  70 SW9       29.90S HX  95
SAVANNAH       PTSUNNY   88  77  70 SW9       29.92S HX 100
$$

TNZ008-025-027-028-033-062-065-066-192000-
NORTH MIDDLE TENNESSEE

CITY           SKY/WX    TMP DP  RH WIND       PRES   REMARKS
NASHVILLE      LGT RAIN  81  75  82 S6        29.91F
CLARKSVILLE    MOSUNNY   87  72  60 SW14      29.88F HX  93
COOKEVILLE     MOSUNNY   88  73  62 W7        29.93F HX  96
CROSSVILLE     MOSUNNY   81  67  62 W8        29.97F
$$

TNZ061-075-076-078-094-096-097-192000-
SOUTH MIDDLE TENNESSEE

CITY           SKY/WX    TMP DP  RH WIND       PRES   REMARKS
SHELBYVILLE    MOSUNNY   88  73  62 NW7       29.94F HX  96
$$

TNZ017-018-042-046-047-192000-
NORTHEAST TENNESSEE

CITY           SKY/WX    TMP DP  RH WIND       PRES   REMARKS
TRI CITIES     MOSUNNY   84  66  54 W9        29.92F
$$

TNZ012-013-036-069-073-074-192000-
CENTRAL EAST TENNESSEE

CITY           SKY/WX    TMP DP  RH WIND       PRES   REMARKS
KNOXVILLE      PTSUNNY   83  70  64 W7        29.91F
OAK RIDGE      PTSUNNY   82  68  62 VRB3      29.93F
$$

TNZ083-085-099-192000-
SOUTHEAST TENNESSEE

CITY           SKY/WX    TMP DP  RH WIND       PRES   REMARKS
CHATTANOOGA    PTSUNNY   87  70  56 W7        29.91F HX  92
$$

SKY/WX REPORTED AS FAIR MEANS FEW OR NO CLOUDS BELOW
12 THOUSAND FEET.



USA.gov is the U.S. government's official web portal to all federal, state and local government web resources and services.